Regional Weather Roundup
Issued by NWS

Home | Current Version | Previous Version | Text Only | Print | Product List | Glossary On
Versions: 1 2 3 4 5 6 7 8 9 10 11 12 13 14 15 16 17 18 19 20 21 22 23 24 25 26 27 28 29 30 31 32 33 34 35 36 37 38 39 40 41 42 43 44 45 46 47 48 49 50
000
ASUS43 KDTX 250810
RWRMI
MICHIGAN HOURLY REGIONAL WEATHER ROUNDUP
NATIONAL WEATHER SERVICE DETROIT/PONTIAC MI
300 AM EST SAT FEB 25 2017

NOTE: "FAIR" INDICATES FEW OR NO CLOUDS BELOW 12,000 FEET WITH NO
SIGNIFICANT WEATHER AND/OR OBSTRUCTION TO VISIBILITY.

MIZ047>049-052>055-059>063-066>070-074>076-081>083-250900-
SOUTHEAST LOWER MICHIGAN

CITY           SKY/WX    TMP DP  RH WIND       PRES   REMARKS
ADRIAN         CLOUDY    41  35  79 W10       29.56R
ALMA           CLOUDY    37  33  86 SW13      29.47R WCI  29
ANN ARBOR      MOCLDY    40  35  83 SW12      29.53F WCI  33
BAD AXE        CLOUDY    41  38  89 SW16      29.43S
CARO           CLOUDY    40  37  87 SW14G21   29.45S WCI  32
DETROIT CITY   CLOUDY    44  39  82 W20G28    29.51R
DETROIT        CLOUDY    43  35  73 W17G29    29.53S
FLINT          PTCLDY    39  32  76 SW15      29.50R WCI  31
GROSSE ILE     CLOUDY    44  37  78 W9G18     29.52R
HILLSDALE      CLOUDY    36  32  87 W12G20    29.55R WCI  27
HOWELL         CLOUDY    38  32  78 SW13G21   29.52R WCI  31

CITY           SKY/WX    TMP DP  RH WIND       PRES   REMARKS
JACKSON        MOCLDY    38  31  76 SW14      29.54R WCI  30
LAMBERTVILLE   CLOUDY    45  38  78 W9G17     29.56F
LANSING        MOCLDY    37  30  75 W24G30    29.52R WCI  26
LAPEER         CLOUDY    40  34  77 SW10G20   29.49R WCI  34
MASON          PTCLDY    37  33  84 SW8       29.53R WCI  31
MONROE         CLOUDY    44  38  80 W15G24    29.53F
MT. CLEMENS    CLOUDY    45  43  91 W17       29.48R
PONTIAC        CLOUDY    41  34  76 SW17      29.50R
PORT HOPE        N/A     42  40  92 SW14G22   29.39S
PORT HURON     CLOUDY    50  46  87 SW9       29.47R
TRI CITIES     MOCLDY    39  34  82 SW23G32   29.44S WCI  28
MIDLAND        CLOUDY    40  34  81 SW13      29.43S WCI  32
TROY           CLOUDY    44  37  75 SW13G23   29.53R
SAGINAW HB     MOCLDY    39  32  75 SW17G25   29.46R WCI  30
$$
MIZ043>046-050>051-056>058-064>065-071>073-077>080-250900-
SOUTHWEST LOWER MICHIGAN

CITY           SKY/WX    TMP DP  RH WIND       PRES   REMARKS
BATTLE CREEK   CLOUDY    35  32  88 W12       29.54S WCI  27
BENTON HARBOR  CLOUDY    34  31  88 W8        29.56F WCI  27
BIG RAPIDS     CLOUDY    35  33  93 W8        29.42F WCI  28
COLDWATER      CLOUDY    38  33  82 W8        29.55F WCI  32
FREMONT        LGT SNOW  33  33 100 W12       29.45F WCI  24
HOLLAND        CLOUDY    32  29  88 W12       29.54S WCI  23
GRAND RAPIDS   LGT SNOW  32  30  92 W14       29.51R FOG     WCI  22
IONIA          CLOUDY    33  31  92 SW20      29.50R WCI  22
KALAMAZOO      LGT RAIN  35  32  88 W3        29.54F
LUDINGTON      LGT SNOW  30  30  99 NW9G18    29.46S WCI  22
MARSHALL       DRIZZLE   36  34  92 W9G20     29.54R WCI  29
MOUNT PLEASANT CLOUDY    37  34  89 SW15      29.43S WCI  28
MUSKEGON       LGT SNOW  31  29  92 W15       29.52R FOG     WCI  20
SOUTH HAVEN    LGT SNOW  32  32  99 NW5       29.55S WCI  27
$$
MIZ016>042-250900-
NORTHERN LOWER MICHIGAN

CITY           SKY/WX    TMP DP  RH WIND       PRES   REMARKS
ALPENA         CLOUDY    33  33 100 W5        29.35F FOG     WCI  29
BEAVER ISLAND  CLOUDY    23  22  97 N6        29.45S WCI  15
BELLAIRE       CLOUDY    32  32  99 CALM      29.40F FOG
CADILLAC       CLOUDY    32  31  98 W5        29.37F FOG     WCI  27
CHARLEVOIX     LGT SNOW  27  27 100 N12G17    29.44F WCI  17
FRANKFORT      LGT SNOW  29  28  95 N7        29.45S WCI  22
GAYLORD        CLOUDY    32  29  88 CALM      29.35F FOG
GRAYLING       CLOUDY    33  33  97 CALM      29.37F FOG
HARBOR SPRINGS CLOUDY    29  28  97 N8        29.40F FOG     WCI  21
HOUGHTON LAKE  CLOUDY    34  33  96 W9        29.38R FOG     WCI  27
MANISTEE       LGT SNOW  30  28  93 NW10G18   29.45S FOG     WCI  21
OSCODA         CLOUDY    35  35  97 SW7       29.38S FOG     WCI  30
PELLSTON       FRZ RAIN  27  24  89 N12       29.41F FOG     WCI  17
ROGERS CITY    CLOUDY    32  31  98 CALM      29.37F FOG
TRAVERSE CITY  LGT SNOW  31  29  92 NW6       29.40F FOG     WCI  25
$$
MIZ007>008-015-250900-
EASTERN UPPER MICHIGAN

CITY           SKY/WX    TMP DP  RH WIND       PRES   REMARKS
KINROSS        MIX PCPN  21  19  93 N10       29.41F FOG     WCI  10
MACKINAC ISLAN CLOUDY    23  23 100 N9        29.41F FOG     WCI  13
NEWBERRY       LGT SNOW  20  19  97 N9        29.44F WCI   9
S. S. MARIE    FRZ RAIN  23  19  85 N6        29.42F FOG     WCI  16
MUNISING         N/A     25  21  85 N16       29.50F WCI  12
$$
MIZ004>006-011>014-085-250900-
CENTRAL UPPER MICHIGAN

CITY           SKY/WX    TMP DP  RH WIND       PRES   REMARKS
MANISTIQUE     CLOUDY    22  22  98 N13       29.46F FOG     WCI  10
ESCANABA       FLURRIES  24  21  88 N14       29.50F WCI  12
MENOMINEE      CLOUDY    21  18  88 N14G21    29.54F WCI   8
SAWYER-GWINN   LGT SNOW  20  17  88 N15G25    29.51F WCI   6
$$
MIZ001>003-009>011-084-250900-
WESTERN UPPER MICHIGAN

CITY           SKY/WX    TMP DP  RH WIND       PRES   REMARKS
IRON MOUNTAIN  LGT SNOW  19  12  74 NW20G25   29.53F WCI   3
HOUGHTON       CLOUDY    18  13  80 N16G24    29.61F HAZE    WCI   3
COPPER HARBOR    N/A     21  18  88 NE21G28   29.62F WCI   5
IRONWOOD       LGT SNOW  16  12  84 NW12      29.69F FOG     WCI   3
$$

ABBREVIATIONS USED IN REMARKS
   TC - TEMPERATURE IN CELSIUS
  WCI - WIND CHILL INDEX
   HX - HEAT INDEX
  VSB - VISIBILITY





USA.gov is the U.S. government's official web portal to all federal, state and local government web resources and services.